Sigfox identifier Datetime Temperature Humidity SNR
003A3B16 2019-04-23 15:11:10 21.3 29 15.4
003A3B16 2019-04-23 14:37:08 21.3 29 15.9
003A3B16 2019-04-23 14:03:03 21.3 28 16
003A3B16 2019-04-23 13:29:00 21.2 28 16.1
003A3B16 2019-04-23 12:54:54 21.2 28 16.2
003A3B16 2019-04-23 12:20:48 21.2 28 16.2
003A3B16 2019-04-23 11:46:44 21.2 28 16.4
003A3B16 2019-04-23 11:12:41 21.1 28 16.8
003A3B16 2019-04-23 10:38:35 21 28 16.6
003A3B16 2019-04-23 10:04:31 21 28 16.6
003A3B16 2019-04-23 09:30:29 20.9 28 16.5
003A3B16 2019-04-23 08:56:23 20.8 28 16.6
003A3B16 2019-04-23 08:22:20 20.8 28 16.3
003A3B16 2019-04-23 07:48:14 20.8 28 17.1
003A3B16 2019-04-23 07:14:09 20.8 28 16.7
003A3B16 2019-04-23 06:40:04 20.8 28 16.9
003A3B16 2019-04-23 06:05:58 20.8 28 16.6
003A3B16 2019-04-23 05:31:54 20.8 28 17.2
003A3B16 2019-04-23 04:57:49 20.8 28 17.2
003A3B16 2019-04-23 04:23:43 20.8 28 17.2
003A3B16 2019-04-23 03:49:38 20.8 28 17.7
003A3B16 2019-04-23 03:15:36 20.8 28 17.7
003A3B16 2019-04-23 02:41:27 20.8 28 17.5
003A3B16 2019-04-23 02:07:22 20.8 28 17.6
003A3B16 2019-04-23 01:33:17 20.8 28 17.6
003A3B16 2019-04-23 00:59:12 20.8 28 17.3
003A3B16 2019-04-23 00:25:07 20.8 28 17.3
003A3B16 2019-04-22 23:51:07 20.8 28 17.2
003A3B16 2019-04-22 23:16:58 20.8 28 17
003A3B16 2019-04-22 22:42:53 20.8 28 17
003A3B16 2019-04-22 22:08:47 20.8 28 17
003A3B16 2019-04-22 21:34:43 20.8 27 16.6
003A3B16 2019-04-22 21:00:37 20.8 28 16.7
003A3B16 2019-04-22 20:26:32 20.8 27 16.6
003A3B16 2019-04-22 19:52:29 20.8 27 16.7
003A3B16 2019-04-22 19:18:25 20.8 27 16.7
003A3B16 2019-04-22 18:44:21 20.8 27 16.6
003A3B16 2019-04-22 18:10:18 20.8 27 16.6
003A3B16 2019-04-22 17:36:12 20.8 27 16
003A3B16 2019-04-22 17:02:07 20.8 27 16.2
003A3B16 2019-04-22 16:28:03 20.8 27 16.1
003A3B16 2019-04-22 15:53:58 20.8 27 15.9
003A3B16 2019-04-22 15:19:53 20.8 27 15
003A3B16 2019-04-22 14:45:49 20.8 27 15.1
003A3B16 2019-04-22 14:11:42 20.8 27 15.4
003A3B16 2019-04-22 13:37:38 20.8 27 14.5
003A3B16 2019-04-22 13:03:32 20.8 27 14.6
003A3B16 2019-04-22 12:29:28 20.8 27 14.6
003A3B16 2019-04-22 11:55:23 20.8 27 15.1
003A3B16 2019-04-22 11:21:18 20.9 27 15.2
003A3B16 2019-04-22 10:47:13 20.8 27 15.5
003A3B16 2019-04-22 10:13:07 20.9 26 15.7
003A3B16 2019-04-22 09:39:02 20.9 26 15.8
003A3B16 2019-04-22 09:04:57 20.9 26 15.7
003A3B16 2019-04-22 08:30:52 20.9 26 16.2
003A3B16 2019-04-22 07:56:46 20.8 26 16.2
003A3B16 2019-04-22 07:22:42 20.8 26 16.2
003A3B16 2019-04-22 06:48:39 20.8 26 16.2
003A3B16 2019-04-22 06:14:32 20.9 26 16.4
003A3B16 2019-04-22 05:40:27 20.9 26 16.4
003A3B16 2019-04-22 05:06:21 20.9 26 16.9
003A3B16 2019-04-22 04:32:16 21 26 16.8
003A3B16 2019-04-22 03:58:11 21 26 16.9
003A3B16 2019-04-22 03:24:06 21 26 16.7
003A3B16 2019-04-22 02:50:02 21 26 17.5
003A3B16 2019-04-22 02:15:58 21 26 17.4
003A3B16 2019-04-22 01:41:55 21 26 17.4
003A3B16 2019-04-22 01:07:51 21 26 17.4
003A3B16 2019-04-22 00:33:46 21 26 17.7
003A3B16 2019-04-21 23:59:44 21 26 17.5
003A3B16 2019-04-21 23:25:38 21 26 17.7
003A3B16 2019-04-21 22:51:34 21 26 17.9
003A3B16 2019-04-21 22:17:32 21 26 17.9
003A3B16 2019-04-21 21:43:29 21 26 17.9
003A3B16 2019-04-21 21:09:26 21 26 17.8
003A3B16 2019-04-21 20:35:24 21 26 17.7
003A3B16 2019-04-21 20:01:21 21 26 17.6
003A3B16 2019-04-21 19:27:18 21 26 17.5
003A3B16 2019-04-21 18:53:11 21 26 17.6
003A3B16 2019-04-21 18:19:07 21 26 17.2
003A3B16 2019-04-21 17:45:01 21 26 17.2
003A3B16 2019-04-21 17:10:58 21 26 17.2
003A3B16 2019-04-21 16:36:54 20.9 26 17.1
003A3B16 2019-04-21 16:02:53 20.8 26 17
003A3B16 2019-04-21 15:28:47 20.9 26 17.1
003A3B16 2019-04-21 14:54:42 20.8 26 16.6
003A3B16 2019-04-21 14:20:37 20.8 26 16.6
003A3B16 2019-04-21 13:46:32 20.8 26 17
003A3B16 2019-04-21 13:12:27 20.8 26 17.2
003A3B16 2019-04-21 12:38:22 20.8 26 16.4
003A3B16 2019-04-21 12:04:17 20.8 26 16.3
003A3B16 2019-04-21 11:30:13 20.8 26 16.4
003A3B16 2019-04-21 10:56:09 20.8 26 16.6
003A3B16 2019-04-21 10:22:05 20.8 26 16.5
003A3B16 2019-04-21 09:48:01 20.8 26 16.9
003A3B16 2019-04-21 09:13:59 20.8 26 16.8
003A3B16 2019-04-21 08:39:54 20.8 26 16.4
003A3B16 2019-04-21 08:05:51 20.8 26 16.4
003A3B16 2019-04-21 07:31:48 20.8 26 16
003A3B16 2019-04-21 06:57:44 20.8 26 16.5
003A3B16 2019-04-21 06:23:40 20.8 26 16.5
003A3B16 2019-04-21 05:49:39 20.8 26 16.5
003A3B16 2019-04-21 05:15:35 20.8 26 16.5
003A3B16 2019-04-21 04:41:32 20.8 26 16.9
003A3B16 2019-04-21 04:07:28 20.9 26 17.2
003A3B16 2019-04-21 03:33:26 20.8 26 17.1
003A3B16 2019-04-21 02:59:23 20.9 26 17.2
003A3B16 2019-04-21 02:25:19 20.9 26 17.3
003A3B16 2019-04-21 01:51:16 20.8 26 17.2
003A3B16 2019-04-21 01:17:13 20.9 26 17.1
003A3B16 2019-04-21 00:43:10 20.9 25 17
003A3B16 2019-04-21 00:09:06 20.9 25 17
003A3B16 2019-04-20 23:35:01 20.9 25 16.4
003A3B16 2019-04-20 23:00:57 20.9 25 16.1
003A3B16 2019-04-20 22:26:52 20.9 25 16.1
003A3B16 2019-04-20 21:52:48 21 25 16.2
003A3B16 2019-04-20 21:18:45 20.9 25 16.3
003A3B16 2019-04-20 20:44:40 20.9 25 15.9
003A3B16 2019-04-20 20:10:36 20.9 25 15.7
003A3B16 2019-04-20 19:36:32 20.9 25 15.2
003A3B16 2019-04-20 19:02:26 20.9 25 15.1
003A3B16 2019-04-20 18:28:22 20.9 25 15.2
003A3B16 2019-04-20 17:54:18 20.9 25 15
003A3B16 2019-04-20 17:20:18 21 25 15
003A3B16 2019-04-20 16:46:14 20.9 25 14.3
003A3B16 2019-04-20 16:12:09 20.8 25 14
003A3B16 2019-04-20 15:38:04 20.9 25 14.1
003A3B16 2019-04-20 15:04:00 20.8 25 14
003A3B16 2019-04-20 14:29:55 20.8 25 13.7
003A3B16 2019-04-20 13:55:51 20.8 25 12.9
003A3B16 2019-04-20 13:21:49 20.8 25 12.9
003A3B16 2019-04-20 12:47:44 20.8 25 13.1
003A3B16 2019-04-20 12:13:37 20.8 24 13.3
003A3B16 2019-04-20 11:39:35 20.8 24 13.3
003A3B16 2019-04-20 10:31:25 20.8 24 13.9
003A3B16 2019-04-20 09:57:18 20.8 24 14
003A3B16 2019-04-20 09:23:16 20.8 24 14.1
003A3B16 2019-04-20 08:15:03 20.7 24 14.7
003A3B16 2019-04-20 07:40:58 20.8 24 14.8
003A3B16 2019-04-20 07:06:51 20.7 24 14.6
003A3B16 2019-04-20 06:32:47 20.7 24 14.5
003A3B16 2019-04-20 05:58:41 20.8 24 14.4
003A3B16 2019-04-20 04:50:34 20.6 24 14.5
003A3B16 2019-04-20 04:16:26 20.7 24 14.6
003A3B16 2019-04-20 03:42:21 20.6 24 14.8
003A3B16 2019-04-20 03:08:18 20.6 24 15
003A3B16 2019-04-20 02:34:09 20.6 24 15.1
003A3B16 2019-04-20 02:00:01 20.6 24 15.1
003A3B16 2019-04-20 00:51:51 20.6 24 15
003A3B16 2019-04-20 00:17:47 20.6 24 15.4
003A3B16 2019-04-19 23:43:36 20.6 24 15.4
003A3B16 2019-04-19 23:09:30 20.6 24 15.4
003A3B16 2019-04-19 22:35:24 20.6 24 15.2
003A3B16 2019-04-19 22:01:18 20.6 24 15.2
003A3B16 2019-04-19 21:27:12 20.6 25 15
003A3B16 2019-04-19 20:53:07 20.6 25 15.2
003A3B16 2019-04-19 20:18:59 20.6 25 14.9
003A3B16 2019-04-19 19:44:53 20.6 25 15.2
003A3B16 2019-04-19 19:10:47 20.6 25 14.7
003A3B16 2019-04-19 18:36:42 20.6 25 14.7
003A3B16 2019-04-19 18:02:40 20.6 25 14.9
003A3B16 2019-04-19 17:28:33 20.6 25 14.3
003A3B16 2019-04-19 16:54:29 20.6 25 14.2
003A3B16 2019-04-19 16:20:25 20.6 25 14.2
003A3B16 2019-04-19 15:12:17 20.6 25 14.3
003A3B16 2019-04-19 14:38:08 20.6 25 14.1
003A3B16 2019-04-19 14:04:03 20.6 25 14
003A3B16 2019-04-19 13:29:57 20.6 25 14.3
003A3B16 2019-04-19 12:55:54 20.6 26 14.1
003A3B16 2019-04-19 12:21:49 20.7 26 14
003A3B16 2019-04-19 11:47:40 20.8 26 13.8
003A3B16 2019-04-19 11:13:36 20.8 26 14
003A3B16 2019-04-19 10:39:30 20.8 26 14.5
003A3B16 2019-04-19 10:05:24 20.8 26 14.4
003A3B16 2019-04-19 09:31:18 20.8 26 14.2
003A3B16 2019-04-19 08:23:06 20.8 26 14
003A3B16 2019-04-19 07:49:00 20.9 26 14
003A3B16 2019-04-19 07:14:55 20.9 26 13.9
003A3B16 2019-04-19 06:40:51 20.9 26 13.9
003A3B16 2019-04-19 06:06:47 20.9 26 13.9
003A3B16 2019-04-19 05:32:40 20.9 26 13.4
003A3B16 2019-04-19 04:58:34 20.9 26 13.4
003A3B16 2019-04-19 04:24:27 21 27 13
003A3B16 2019-04-19 03:50:22 21 27 17.8
003A3B16 2019-04-19 03:16:19 21 27 20
003A3B16 2019-04-19 02:42:10 21 27 21.4
003A3B16 2019-04-19 02:08:04 21 27 21.8
003A3B16 2019-04-19 01:34:01 21 27 21.8
003A3B16 2019-04-19 00:59:56 21 27 21.9
003A3B16 2019-04-19 00:25:47 21 27 22.1
003A3B16 2019-04-18 23:51:41 21 27 23.1
003A3B16 2019-04-18 23:17:35 21 27 23.3
003A3B16 2019-04-18 22:43:30 21 27 23.4
003A3B16 2019-04-18 22:09:24 21 27 23.5
003A3B16 2019-04-18 21:35:20 21 27 23.6
003A3B16 2019-04-18 21:01:15 21 27 23.9
003A3B16 2019-04-18 20:27:08 21 27 24.3
003A3B16 2019-04-18 19:53:04 21 27 24.4
003A3B16 2019-04-18 19:18:56 21.1 27 24.5
003A3B16 2019-04-18 18:44:51 21.2 27 24.7
003A3B16 2019-04-18 18:10:46 21.2 27 24.8
003A3B16 2019-04-18 17:36:43 21.2 27 25
003A3B16 2019-04-18 17:02:35 21.2 27 25.2
003A3B16 2019-04-18 16:28:33 21.3 27 25.6
003A3B16 2019-04-18 15:54:26 21.3 27 25.7
003A3B16 2019-04-18 15:20:24 21.4 27 25.8
003A3B16 2019-04-18 14:46:17 21.4 27 26
003A3B16 2019-04-18 14:12:11 21.4 27 26.1
003A3B16 2019-04-18 13:38:06 21.6 27 25.7
003A3B16 2019-04-18 13:03:59 21.7 27 25.5
003A3B16 2019-04-18 12:29:54 21.9 26 25.2
003A3B16 2019-04-18 11:55:50 22.1 21 25.3
003A3B16 2019-04-18 11:21:44 22.1 22 25.8
003A3B16 2019-04-18 10:47:39 22.1 22 26
003A3B16 2019-04-18 10:13:34 22 22 26
003A3B16 2019-04-18 09:39:29 21.9 22 25.9
003A3B16 2019-04-18 09:05:25 21.9 22 26
003A3B16 2019-04-18 08:31:19 21.9 21 26.4
003A3B16 2019-04-18 07:57:15 21.9 21 26.4
003A3B16 2019-04-18 07:23:11 21.9 22 26.7
003A3B16 2019-04-18 06:49:07 21.9 22 26.7
003A3B16 2019-04-18 06:15:02 21.9 22 26.6
003A3B16 2019-04-18 05:40:57 21.9 22 26.5
003A3B16 2019-04-18 05:06:53 21.9 22 26.5
003A3B16 2019-04-18 04:32:48 22.1 22 26.5
003A3B16 2019-04-18 03:58:43 22.1 22 26.6
003A3B16 2019-04-18 03:24:39 22.1 23 26.5
003A3B16 2019-04-18 02:50:36 22.1 23 26.4
003A3B16 2019-04-18 02:16:33 22.1 23 26.2
003A3B16 2019-04-18 01:42:30 22.1 23 26.1
003A3B16 2019-04-18 01:08:27 22.1 23 26.2
003A3B16 2019-04-18 00:34:23 22.1 23 26.1
003A3B16 2019-04-18 00:00:21 22.2 23 26.1
003A3B16 2019-04-17 23:26:17 22.3 23 26.1
003A3B16 2019-04-17 22:52:13 22.3 23 26.3
003A3B16 2019-04-17 22:18:10 22.3 23 26.2
003A3B16 2019-04-17 21:44:06 22.3 23 26.1
003A3B16 2019-04-17 21:10:03 22.5 23 25.7
003A3B16 2019-04-17 20:36:00 22.5 23 25.5
003A3B16 2019-04-17 20:01:57 22.5 23 25.6
003A3B16 2019-04-17 19:27:53 22.5 23 25.7
003A3B16 2019-04-17 18:53:49 22.5 22 25.6
003A3B16 2019-04-17 18:19:44 22.5 22 25.6
003A3B16 2019-04-17 17:45:40 22.7 22 25.6
003A3B16 2019-04-17 17:11:36 22.7 22 25.2
003A3B16 2019-04-17 16:37:32 22.7 22 25.2
003A3B16 2019-04-17 16:03:28 22.7 22 25.2
003A3B16 2019-04-17 15:29:25 22.7 23 25.4
003A3B16 2019-04-17 14:55:21 22.6 23 25.5
003A3B16 2019-04-17 14:21:16 22.5 24 25.4
003A3B16 2019-04-17 13:47:11 22.5 23 25.4
003A3B16 2019-04-17 13:13:05 22.3 23 25.4
003A3B16 2019-04-17 12:39:01 22.3 23 25.4
003A3B16 2019-04-17 12:04:55 22.1 23 25.6
003A3B16 2019-04-17 11:30:51 22.1 22 25.6
003A3B16 2019-04-17 10:56:46 22.1 22 25.7
003A3B16 2019-04-17 10:22:42 22 22 25.8
003A3B16 2019-04-17 09:48:39 21.9 22 25.9
003A3B16 2019-04-17 09:14:34 21.9 22 26.1
003A3B16 2019-04-17 08:40:31 21.9 21 26.1
003A3B16 2019-04-17 08:06:28 21.9 21 26.1
003A3B16 2019-04-17 07:32:25 21.9 20 26.1
003A3B16 2019-04-17 06:58:21 21.9 20 26.5
003A3B16 2019-04-17 06:24:18 21.9 20 26.5
003A3B16 2019-04-17 05:50:13 21.9 20 26.4
003A3B16 2019-04-17 05:16:08 21.9 20 26
003A3B16 2019-04-17 04:42:03 21.9 20 26
003A3B16 2019-04-17 04:07:58 21.9 20 25.5
003A3B16 2019-04-17 03:33:53 21.9 20 25.6
003A3B16 2019-04-17 02:59:49 21.9 20 25.6
003A3B16 2019-04-17 02:25:44 21.9 20 25.7
003A3B16 2019-04-17 01:51:41 21.9 20 25.6
003A3B16 2019-04-17 01:17:38 21.9 20 25.5
003A3B16 2019-04-17 00:43:34 22 20 25.4
003A3B16 2019-04-17 00:09:30 22 20 25.4
003A3B16 2019-04-16 23:35:24 22.1 20 25.4
003A3B16 2019-04-16 23:01:19 22.1 20 25.5
003A3B16 2019-04-16 22:27:15 22.1 20 25.5
003A3B16 2019-04-16 21:53:11 22.1 20 25.5
003A3B16 2019-04-16 21:19:07 22.1 20 25.5
003A3B16 2019-04-16 20:45:04 22.2 20 25.5
003A3B16 2019-04-16 20:11:01 22.3 20 25.3
003A3B16 2019-04-16 19:36:56 22.1 20 25.3
003A3B16 2019-04-16 19:02:49 22.1 19 25.1
003A3B16 2019-04-16 18:28:45 22.2 19 24.7
003A3B16 2019-04-16 17:54:40 22.3 19 24.7
003A3B16 2019-04-16 17:20:35 22.3 19 24.8
003A3B16 2019-04-16 16:46:29 22.5 19 24.5
003A3B16 2019-04-16 16:12:25 22.5 19 24.3
003A3B16 2019-04-16 15:38:21 22.5 19 24.5
003A3B16 2019-04-16 15:04:16 22.5 20 25
003A3B16 2019-04-16 14:30:13 22.3 19 25
003A3B16 2019-04-16 13:56:09 22.3 19 25.2
003A3B16 2019-04-16 13:22:06 22.3 19 25.1
003A3B16 2019-04-16 12:48:03 22.1 19 25.1
003A3B16 2019-04-16 12:14:01 22.1 18 25.1
003A3B16 2019-04-16 11:39:58 22.1 18 25.2
003A3B16 2019-04-16 11:05:54 22 18 25.5
003A3B16 2019-04-16 10:31:50 21.9 19 25.6
003A3B16 2019-04-16 09:57:45 21.9 19 25.6
003A3B16 2019-04-16 09:23:42 21.9 18 25.8
003A3B16 2019-04-16 08:49:37 21.9 18 25.8
003A3B16 2019-04-16 08:15:34 21.9 18 25.7
003A3B16 2019-04-16 07:41:31 21.9 18 25.7
003A3B16 2019-04-16 07:07:27 21.9 18 25.7
003A3B16 2019-04-16 06:33:23 21.9 18 25.7
003A3B16 2019-04-16 05:59:18 21.9 18 25.8
003A3B16 2019-04-16 05:25:12 21.7 18 25.7
003A3B16 2019-04-16 04:51:07 21.8 18 25.6
003A3B16 2019-04-16 04:17:04 21.9 18 25.6
003A3B16 2019-04-16 03:43:00 21.9 18 25.5
003A3B16 2019-04-16 03:08:54 21.9 18 25.6
003A3B16 2019-04-16 02:34:49 21.9 18 25.5
003A3B16 2019-04-16 02:00:45 21.9 18 25.7
003A3B16 2019-04-16 01:26:41 21.9 17 25.6
003A3B16 2019-04-16 00:52:36 21.9 17 25.1
003A3B16 2019-04-16 00:18:34 21.9 17 25.2
003A3B16 2019-04-15 23:44:30 21.9 17 25.1
003A3B16 2019-04-15 23:10:26 22 17 25.1
003A3B16 2019-04-15 22:36:23 22.1 17 25.1
003A3B16 2019-04-15 22:02:18 22.1 17 25
003A3B16 2019-04-15 21:28:13 22.1 17 25
003A3B16 2019-04-15 20:54:10 22.1 17 25
003A3B16 2019-04-15 20:20:06 22.1 17 24.9
003A3B16 2019-04-15 19:46:02 22.2 16 24.9
003A3B16 2019-04-15 19:11:57 22.1 16 24.8
003A3B16 2019-04-15 18:37:53 22.1 15 24.7
003A3B16 2019-04-15 18:03:49 22.3 15 24.6
003A3B16 2019-04-15 17:29:46 22.3 15 24.5
003A3B16 2019-04-15 16:55:43 22.5 16 24.6
003A3B16 2019-04-15 16:21:39 22.5 16 24.6
003A3B16 2019-04-15 15:47:35 22.5 16 24.5
003A3B16 2019-04-15 15:13:30 22.5 16 24.7
003A3B16 2019-04-15 14:39:27 22.3 16 24.8
003A3B16 2019-04-15 14:05:23 22.3 16 24.8
003A3B16 2019-04-15 13:31:18 22.3 17 24.9
003A3B16 2019-04-15 12:57:13 22.1 17 24.9
003A3B16 2019-04-15 12:23:08 22.1 17 24.9
003A3B16 2019-04-15 11:49:02 21.9 16 24.6
003A3B16 2019-04-15 11:14:57 21.9 16 25.2
003A3B16 2019-04-15 10:40:53 21.9 17 25.2
003A3B16 2019-04-15 10:06:47 21.9 17 25.1
003A3B16 2019-04-15 09:32:41 21.8 18 25.2
003A3B16 2019-04-15 08:58:35 21.7 18 25.3
003A3B16 2019-04-15 08:24:28 21.7 17 25.2
003A3B16 2019-04-15 07:50:24 21.7 18 25.4
003A3B16 2019-04-15 07:16:19 21.7 18 25.5
003A3B16 2019-04-15 06:42:15 21.7 18 25.1
003A3B16 2019-04-15 06:08:10 21.6 18 25.1
003A3B16 2019-04-15 05:34:04 21.6 18 25.1
003A3B16 2019-04-15 04:59:59 21.6 18 25.1
003A3B16 2019-04-15 04:25:55 21.5 18 25.3
003A3B16 2019-04-15 03:51:49 21.6 18 25.3
003A3B16 2019-04-15 03:17:43 21.6 18 25.2
003A3B16 2019-04-15 02:43:39 21.5 18 25.2
003A3B16 2019-04-15 02:09:33 21.6 18 25.1
003A3B16 2019-04-15 01:35:28 21.5 18 25.1
003A3B16 2019-04-15 01:01:25 21.5 18 25.2
003A3B16 2019-04-15 00:27:19 21.6 18 25.1
003A3B16 2019-04-14 23:53:16 21.6 18 25.1
003A3B16 2019-04-14 23:19:10 21.6 18 24.8
003A3B16 2019-04-14 22:45:04 21.7 18 24.8
003A3B16 2019-04-14 22:10:58 21.7 18 24.8
003A3B16 2019-04-14 21:36:53 21.7 19 24.8
003A3B16 2019-04-14 21:02:46 21.7 19 24.3
003A3B16 2019-04-14 20:28:40 21.7 19 24.3
003A3B16 2019-04-14 19:54:33 21.7 19 24.4
003A3B16 2019-04-14 19:20:27 21.7 19 24.7
003A3B16 2019-04-14 18:46:21 21.7 19 24.7
003A3B16 2019-04-14 18:12:14 21.7 19 24.8
003A3B16 2019-04-14 17:38:08 21.7 19 24.7
003A3B16 2019-04-14 17:04:02 21.7 19 24.7
003A3B16 2019-04-14 16:29:56 21.7 19 24.7
003A3B16 2019-04-14 15:55:50 21.7 19 24.7
003A3B16 2019-04-14 15:21:45 21.7 19 24.7
003A3B16 2019-04-14 14:47:41 21.7 19 24.7
003A3B16 2019-04-14 14:13:34 21.7 19 24.5
003A3B16 2019-04-14 13:39:27 21.7 19 24.6
003A3B16 2019-04-14 13:05:20 21.7 19 24.7
003A3B16 2019-04-14 12:31:13 21.7 19 24.7
003A3B16 2019-04-14 11:57:06 21.7 19 24.9
003A3B16 2019-04-14 11:23:00 21.7 19 25.1
003A3B16 2019-04-14 10:48:54 21.7 19 25
003A3B16 2019-04-14 10:14:48 21.7 19 25.1
003A3B16 2019-04-14 09:40:43 21.7 19 25.1
003A3B16 2019-04-14 09:06:37 21.7 19 25.2
003A3B16 2019-04-14 08:32:30 21.7 19 25.3
003A3B16 2019-04-14 07:58:22 21.7 19 25.2
003A3B16 2019-04-14 07:24:16 21.7 19 25.4
003A3B16 2019-04-14 06:50:11 21.7 19 25.3
003A3B16 2019-04-14 06:16:04 21.7 19 25.4
003A3B16 2019-04-14 05:41:58 21.7 19 25.3
003A3B16 2019-04-14 05:07:52 21.7 19 24.9
003A3B16 2019-04-14 04:33:44 21.7 19 25
003A3B16 2019-04-14 03:59:38 21.7 18 25.3
003A3B16 2019-04-14 03:25:33 21.7 19 25.1
003A3B16 2019-04-14 02:51:27 21.7 19 25
003A3B16 2019-04-14 02:17:22 21.7 19 25
003A3B16 2019-04-14 01:43:18 21.7 19 25.2
003A3B16 2019-04-14 01:09:12 21.7 19 25.2
003A3B16 2019-04-14 00:35:07 21.8 19 25.1
003A3B16 2019-04-14 00:01:01 21.9 19 25.1
003A3B16 2019-04-13 23:26:56 21.9 19 25.2
003A3B16 2019-04-13 22:52:50 21.9 19 25.2
003A3B16 2019-04-13 22:18:45 21.9 18 25.2
003A3B16 2019-04-13 21:44:39 21.9 18 25
003A3B16 2019-04-13 21:10:35 21.9 18 24.7
003A3B16 2019-04-13 20:36:30 21.9 18 24.6
003A3B16 2019-04-13 20:02:26 21.9 19 24.6
003A3B16 2019-04-13 19:28:22 21.9 19 24.5
003A3B16 2019-04-13 18:54:17 21.9 19 24.4
003A3B16 2019-04-13 18:20:14 21.9 19 24.4
003A3B16 2019-04-13 17:46:10 22 19 24.9
003A3B16 2019-04-13 17:12:05 22 19 24.7
003A3B16 2019-04-13 16:38:01 22.1 19 24.9
003A3B16 2019-04-13 16:03:56 22.1 19 24.9
003A3B16 2019-04-13 15:29:49 22.1 19 24.9
003A3B16 2019-04-13 14:55:44 22.1 19 24.8
003A3B16 2019-04-13 14:21:40 22.1 19 24.7
003A3B16 2019-04-13 13:47:36 22.1 19 24.2
003A3B16 2019-04-13 13:13:31 22.1 19 24.3
003A3B16 2019-04-13 12:39:26 22.1 19 24.3
003A3B16 2019-04-13 12:05:20 22.1 19 24.7
003A3B16 2019-04-13 11:31:15 22.1 19 24.5
003A3B16 2019-04-13 10:57:08 22.1 19 24.5
003A3B16 2019-04-13 10:23:03 22.1 19 24.5
003A3B16 2019-04-13 09:48:57 22.1 19 24.4
003A3B16 2019-04-13 09:14:52 22.1 19 24.4
003A3B16 2019-04-13 08:40:48 22.1 19 24.4
003A3B16 2019-04-13 08:06:43 22.1 19 24.4
003A3B16 2019-04-13 07:32:39 22.1 19 24.4
003A3B16 2019-04-13 06:58:34 22.1 19 24.5
003A3B16 2019-04-13 06:24:27 22.1 19 24.4
003A3B16 2019-04-13 05:50:22 22.1 19 24.5
003A3B16 2019-04-13 05:16:17 22.1 19 24.5
003A3B16 2019-04-13 04:42:11 22.1 19 24.5
003A3B16 2019-04-13 04:08:06 22.1 19 24.9
003A3B16 2019-04-13 03:34:00 22.1 19 24.4
003A3B16 2019-04-13 02:59:55 22.2 19 24.3
003A3B16 2019-04-13 02:25:51 22.2 19 24.2
003A3B16 2019-04-13 01:51:46 22.3 19 24.1
003A3B16 2019-04-13 01:17:40 22.3 19 24.2
003A3B16 2019-04-13 00:43:33 22.3 19 24.3
003A3B16 2019-04-13 00:09:26 22.3 20 24.4
003A3B16 2019-04-12 23:35:22 22.3 20 24.5
003A3B16 2019-04-12 23:01:15 22.3 20 24.5
003A3B16 2019-04-12 22:27:11 22.5 20 24.7
003A3B16 2019-04-12 21:53:04 22.5 20 24
003A3B16 2019-04-12 21:18:58 22.5 20 24
003A3B16 2019-04-12 20:44:52 22.5 19 23.9
003A3B16 2019-04-12 20:10:47 22.5 19 24.2
003A3B16 2019-04-12 19:36:42 22.5 19 24.3
003A3B16 2019-04-12 19:02:39 22.6 19 24.1
003A3B16 2019-04-12 18:28:36 22.7 17 24.1
003A3B16 2019-04-12 17:54:32 22.7 17 24
003A3B16 2019-04-12 17:20:29 22.7 18 24.2
003A3B16 2019-04-12 16:46:24 22.7 18 24.2
003A3B16 2019-04-12 16:12:21 22.6 19 24.5
003A3B16 2019-04-12 15:38:15 22.5 19 24.7
003A3B16 2019-04-12 15:04:10 22.3 19 25.4
003A3B16 2019-04-12 14:30:05 22.1 20 25.8
003A3B16 2019-04-12 13:55:59 21.7 20 18.4
003A3B16 2019-04-12 13:21:53 21 21 11.4